IW1AXR-3 Weather Reports


time (UTC)temp
C
wind
direction
speed
KPH
gust
KPH
rain 1hr
cm
rain 24hr
cm
rain mn
cm
humidity
%
barometer
mb
20260506212747 10 0.0 0.0 0.00 0.00 0.00 1008.4
20260506211734 10 0.0 0.0 0.00 0.00 0.00 1008.4
20260506205712 11 0.0 0.0 0.00 0.00 0.00 1008.4
20260506204657 11 0.0 0.0 0.00 0.00 0.00 1008.3
20260506193537 12 0.0 0.0 0.00 0.00 0.00 1006.6
20260506190453 12 0.0 0.0 0.00 0.00 0.00 1005.8
20260506184427 12 0.0 0.0 0.00 0.00 0.00 98 1005.6
20260506182409 13 0.0 0.0 0.00 0.00 0.00 91 1005.2
20260506175336 14 0.0 0.0 0.00 0.00 0.00 84 1004.5
20260506155116 18 0.0 0.0 0.00 0.00 0.00 60 1003.4
20260506154107 17 0.0 0.0 0.00 0.00 0.00 56 1003.4
20260506151038 21 0.0 0.0 0.00 0.00 0.00 50 1003.6
20260506143012 17 0.0 0.0 0.00 0.00 0.00 57 1003.6
20260506132855 18 0.0 0.0 0.00 0.00 0.00 52 1003.7
20260506121740 22 0.0 0.0 0.00 0.00 0.00 52 1004.0
20260506105550 20 0.0 0.0 0.00 0.00 0.00 60 1004.8
20260506100508 18 0.0 0.0 0.00 0.00 0.00 69 1005.3
20260506095506 20 0.0 0.0 0.00 0.00 0.00 68 1005.3
20260506093434 17 0.0 0.0 0.00 0.00 0.00 78 1005.4
20260506090409 14 0.0 0.0 0.00 0.00 0.00 84 1005.3
20260506084351 13 0.0 0.0 0.00 0.00 0.00 87 1005.3
20260506083325 13 0.0 0.0 0.00 0.00 0.00 88 1005.3
20260506082259 15 0.0 0.0 0.00 0.00 0.00 1005.5
20260506080233 11 0.0 0.0 0.00 0.00 0.00 1005.6
20260506073159 12 0.0 0.0 0.00 0.00 0.00 1005.6
20260506072144 10 0.0 0.0 0.00 0.00 0.00 1005.6
20260506071135 12 0.0 0.0 0.00 0.00 0.00 1005.6
20260506070128 11 0.0 0.0 0.00 0.00 0.00 1005.6
20260506062036 8 0.0 0.0 0.00 0.00 0.00 1005.9
20260506061018 8 0.0 0.0 0.00 0.00 0.00 1005.9
20260506050908 7 0.0 0.0 0.00 0.00 0.00 1006.1
20260506044849 7 0.0 0.0 0.00 0.00 0.00 1006.2
20260506043839 8 0.0 0.0 0.00 0.00 0.00 1006.3
20260506042811 8 0.0 0.0 0.00 0.00 0.00 1006.5
20260506035745 8 0.0 0.0 0.00 0.00 0.00 1006.9
20260506034727 8 0.0 0.0 0.00 0.00 0.00 1006.8
20260506032706 8 0.0 0.0 0.00 0.00 0.00 1006.9
20260506031658 8 0.0 0.0 0.00 0.00 0.00 1007.0
20260506025632 8 0.0 0.0 0.00 0.00 0.00 1007.4
20260506024621 8 0.0 0.0 0.00 0.00 0.00 1006.8
20260506023616 8 0.0 0.0 0.00 0.00 0.00 1007.6
20260506022604 8 0.0 0.0 0.00 0.00 0.00 1007.5
20260506020535 8 0.0 0.0 0.00 0.00 0.00 1007.9
20260506015522 8 0.0 0.0 0.00 0.00 0.00 1007.8
20260506014512 8 0.0 0.0 0.00 0.00 0.00 1007.7
20260506013505 8 0.0 0.0 0.00 0.00 0.00 1007.9
20260506012458 8 0.0 0.0 0.00 0.00 0.00 1008.0
20260506010439 8 0.0 0.0 0.00 0.00 0.00 1008.3
20260506005433 8 0.0 0.0 0.00 0.00 0.00 1008.5
20260506004411 8 0.0 0.0 0.00 0.00 0.00 1008.5
20260506003408 8 0.0 0.0 0.00 0.00 0.00 1008.8
20260506002400 8 0.0 0.0 0.00 0.00 0.00 1009.0
20260506000323 8 0.0 0.0 0.00 0.00 0.00 1009.6
20260505235308 8 0.0 0.0 0.00 0.00 0.00 1009.7
20260505234254 9 0.0 0.0 0.00 0.00 0.00 1009.5
20260505232227 9 0.0 0.0 0.00 0.00 0.00 1010.0
20260505231210 9 0.0 0.0 0.00 0.00 0.00 1010.0
20260505230206 9 0.0 0.0 0.00 0.00 0.00 1009.9
20260505221115 9 0.0 0.0 0.00 0.00 0.00 1010.1
20260505215047 10 0.0 0.0 0.00 0.00 0.00 1010.3